Total_Precipitation_Accumulation
2.87 2.98 3.34 2.70 2.22 1.97 1.86 1.94 2.11 1.99 1.94 1.97 2.08 2.11 2.06 2.06 2.11 2.29 2.39 2.41 2.57 2.90 3.22 3.53 3.64 3.72 3.99 4.12 3.77 3.45 3.41 3.60 3.70 3.55 3.42 3.18 2.96 3.02 3.16 3.27 3.12 2.25 2.28
2.36 2.58 2.87 2.38 1.96 1.78 1.77 1.94 2.00 1.96 1.92 1.97 1.99 2.01 2.05 2.09 2.12 2.23 2.30 2.53 2.79 3.07 3.20 3.40 3.43 3.42 3.54 3.56 3.36 3.09 3.09 3.50 3.89 3.77 3.51 3.10 3.05 3.07 3.25 3.23 3.13 2.38 2.30
1.69 2.03 2.18 2.10 1.82 1.70 1.70 1.85 1.79 1.74 1.81 1.99 2.06 2.13 2.21 2.29 2.27 2.24 2.30 2.57 2.87 3.13 3.26 3.27 3.25 3.24 3.20 3.16 3.13 2.94 3.15 3.59 3.91 4.02 4.00 2.87 2.70 3.18 3.36 3.21 2.74 2.30 2.21
1.26 1.54 1.65 1.78 1.70 1.60 1.47 1.58 1.66 1.59 1.65 1.85 2.16 2.38 2.45 2.58 2.56 2.55 2.61 2.77 2.96 2.99 3.11 3.16 3.11 2.97 2.98 2.95 2.86 2.96 3.12 3.57 4.02 4.41 3.86 2.65 2.21 2.82 3.23 2.98 2.60 2.42 2.29
1.15 1.28 1.51 1.48 1.40 1.47 1.44 1.52 1.62 1.68 1.70 1.73 2.03 2.36 2.58 2.80 2.85 2.90 2.99 3.09 3.15 2.98 2.89 2.96 2.94 2.70 2.74 2.78 2.84 3.05 3.21 3.80 4.44 4.25 3.17 2.80 2.65 2.86 2.95 2.98 2.87 2.78 2.54
0.99 1.05 1.20 1.42 1.40 1.44 1.44 1.46 1.46 1.60 1.77 1.88 2.13 2.43 2.63 2.86 3.04 3.19 3.19 3.25 3.22 3.00 2.91 2.88 2.81 2.66 2.72 2.81 2.99 3.09 3.23 3.87 4.06 3.08 2.69 2.57 2.53 2.84 2.82 3.06 3.08 3.02 2.87
0.84 0.99 1.13 1.36 1.43 1.45 1.40 1.44 1.49 1.57 1.82 2.02 2.10 2.24 2.39 2.60 2.94 3.06 3.04 3.08 2.96 2.81 2.74 2.77 2.78 2.66 2.64 2.77 3.09 3.09 3.28 3.64 3.12 2.53 2.61 2.67 2.39 2.44 2.67 3.09 3.18 3.09 2.79
0.87 0.85 1.06 1.30 1.43 1.43 1.39 1.48 1.58 1.76 1.97 2.13 2.09 2.11 2.21 2.44 2.69 2.70 2.68 2.69 2.65 2.68 2.69 2.73 2.74 2.59 2.48 2.76 2.95 2.99 3.21 3.12 2.42 2.19 2.20 2.15 2.07 2.23 2.63 2.98 3.06 3.03 2.79
1.09 1.00 1.07 1.16 1.22 1.31 1.43 1.54 1.80 2.03 2.15 2.16 2.05 2.05 2.26 2.38 2.42 2.36 2.40 2.44 2.49 2.52 2.58 2.62 2.54 2.43 2.40 2.61 2.69 2.72 2.99 3.09 2.47 2.27 1.94 2.05 2.29 2.45 2.80 2.98 2.95 2.96 2.92
1.42 1.34 1.23 1.24 1.26 1.21 1.39 1.71 1.97 2.15 2.26 2.26 2.22 2.30 2.46 2.54 2.45 2.48 2.42 2.48 2.53 2.63 2.70 2.82 2.78 2.59 2.52 2.54 2.45 2.62 2.97 2.80 2.28 2.11 2.05 1.95 2.33 2.58 2.87 2.99 2.98 2.86 2.88
1.96 1.69 1.52 1.35 1.37 1.48 1.53 1.68 2.13 2.39 2.41 2.41 2.64 2.84 2.97 2.91 2.67 2.81 2.64 2.92 2.98 3.02 3.08 3.20 3.12 2.85 2.70 2.61 2.72 3.03 2.85 2.42 2.36 2.28 2.18 2.14 2.35 2.65 3.02 3.06 3.02 2.98 2.87
2.20 1.81 1.67 1.47 1.43 1.52 1.68 2.09 2.46 2.31 2.45 2.71 3.02 3.18 3.43 3.37 3.28 2.81 3.07 3.43 3.72 4.00 4.00 3.98 3.79 3.36 2.82 2.60 3.24 3.65 2.63 2.30 2.34 2.35 2.27 2.31 2.58 2.92 3.13 2.99 2.87 2.86 2.79
2.02 1.85 1.81 1.83 1.90 1.80 1.94 2.22 2.49 2.53 2.73 2.88 2.97 3.17 3.40 3.13 3.04 3.15 3.49 3.80 4.08 4.28 4.21 4.33 4.38 3.73 3.24 3.11 3.38 3.38 2.65 2.44 2.40 2.33 2.53 2.66 2.75 3.01 3.37 3.24 3.09 3.02 2.89
2.50 2.29 2.17 2.23 2.26 2.27 2.22 2.35 2.47 2.50 2.68 2.85 2.99 2.98 3.13 3.30 3.38 3.53 3.92 3.92 4.08 4.21 4.58 4.33 4.59 4.23 3.71 3.36 3.33 3.18 2.74 2.64 2.65 2.77 3.14 2.94 2.78 3.15 3.59 3.58 3.42 3.19 2.99
3.09 3.10 2.86 2.58 2.47 2.55 2.73 2.69 2.51 2.66 2.82 2.93 3.14 3.12 3.10 3.43 3.63 3.73 3.86 4.06 3.77 3.82 4.29 4.49 4.28 4.47 4.45 4.04 3.68 3.33 3.19 2.97 2.89 2.98 3.19 3.21 3.08 3.19 3.51 3.70 3.56 3.46 3.22
3.25 3.36 3.11 2.94 2.84 2.94 3.22 3.29 3.13 2.97 3.25 3.26 3.25 3.18 3.26 3.52 3.94 4.14 4.07 4.16 3.90 3.67 3.90 4.15 4.17 4.84 4.69 4.49 3.96 3.58 3.47 3.38 3.17 3.12 3.23 3.48 3.35 3.11 3.21 3.65 3.80 3.77 3.63
3.53 3.43 3.37 3.34 3.30 3.50 3.63 3.56 3.34 3.29 3.18 3.28 3.36 3.42 3.42 3.41 3.87 4.13 4.32 4.28 4.01 3.74 3.99 4.16 4.38 4.67 4.43 4.27 4.03 3.81 3.67 3.60 3.37 3.27 3.54 3.77 3.53 3.36 3.25 3.41 3.78 3.99 4.08
3.83 3.81 3.80 3.60 3.75 3.98 4.07 3.94 3.78 3.65 3.47 3.29 3.23 3.43 3.49 3.59 3.85 4.11 4.04 3.95 4.04 3.96 4.22 4.47 4.59 4.67 4.60 4.41 4.18 3.84 3.67 3.74 3.33 3.20 3.23 3.32 3.43 3.16 3.35 3.64 3.88 3.96 4.21
4.31 4.46 4.49 4.44 4.36 4.38 4.40 4.29 4.33 4.32 4.11 3.76 3.61 3.64 3.72 3.63 3.64 3.88 3.88 4.02 4.08 4.07 4.16 3.81 4.41 4.46 4.58 4.44 3.85 3.68 3.38 3.37 3.27 2.93 2.91 2.76 2.92 3.04 3.09 3.20 3.51 3.63 4.14
4.54 5.06 5.08 4.96 4.99 5.09 5.07 4.78 4.79 4.59 4.33 4.17 4.11 4.24 4.00 3.79 3.60 3.84 3.85 4.00 4.02 4.12 4.18 4.15 4.45 4.41 4.27 4.24 3.44 3.31 3.21 2.93 2.85 2.80 2.61 2.60 2.72 2.61 2.78 3.06 3.40 3.13 3.61
4.81 5.30 5.58 5.68 5.63 5.41 5.12 4.78 4.60 4.60 4.58 4.32 4.08 3.91 3.78 3.66 3.70 4.09 3.97 4.34 4.22 4.00 3.96 4.06 4.35 4.27 3.99 4.06 4.05 3.54 2.94 2.61 2.63 2.52 2.62 2.74 2.56 2.62 2.98 3.40 3.56 3.34 3.04
4.41 4.87 5.08 4.91 4.93 4.80 4.60 4.55 4.53 4.79 4.51 4.21 4.04 3.89 3.57 3.53 3.64 3.66 4.07 4.04 4.07 4.19 4.09 4.04 4.26 4.11 3.71 3.89 4.18 4.15 3.42 3.20 2.69 2.17 2.44 2.62 2.69 2.96 3.07 3.11 3.51 3.65 3.31
3.36 3.66 3.88 4.10 4.13 4.07 4.08 4.06 4.16 4.41 4.26 4.12 3.97 3.87 3.46 3.28 3.27 3.43 3.60 3.81 4.16 4.01 4.03 4.10 4.01 3.95 3.71 3.69 3.89 4.24 3.80 3.36 2.84 2.28 2.15 2.41 2.79 3.06 3.01 3.08 3.18 3.37 3.44
3.02 3.23 3.32 3.43 3.60 3.68 3.80 3.72 3.59 3.50 3.51 3.52 3.59 3.53 3.50 3.32 3.21 3.25 3.38 3.58 3.77 3.55 3.62 3.30 3.42 3.72 3.89 3.63 3.74 3.68 3.59 3.53 3.43 2.87 2.43 2.38 2.65 2.83 3.01 2.99 3.11 3.27 3.50
2.44 2.68 2.84 2.98 3.14 3.39 3.52 3.46 3.44 3.23 3.23 3.32 3.36 3.38 3.37 3.30 3.22 3.16 3.18 3.27 3.29 3.13 3.20 3.14 3.39 3.39 3.40 3.41 3.53 3.60 3.69 3.68 3.49 3.31 2.92 2.81 2.70 2.44 2.52 2.72 2.95 3.11 3.31
2.18 2.38 2.50 2.65 2.75 2.97 3.14 3.24 3.34 3.30 3.21 3.18 3.17 3.16 3.14 3.15 3.05 2.97 2.89 2.94 2.96 2.94 3.00 3.06 3.22 3.12 3.17 3.33 3.40 3.43 3.61 3.63 3.69 3.67 3.15 2.93 2.70 2.21 2.18 2.18 2.42 2.72 3.11